Home > Weather > Messina > Past weeks

Flag for Italy Past Weather in Messina, Italy — Yesterday and Last 2 Weeks

Now
88 °F

Sunny.


Feels Like: 87 °F
Forecast: 73 / 83 °F
Wind: 16 mph from North

Location: Reggio Calabria

Current Time: Jun 26, 2016 at 5:35:40 PM

Latest Report: Jun 26, 2016 at 3:50 PM


Visibility: 10 mi

Pressure: 29.92 "Hg

Humidity: 35%

Dew Point: 57 °F

Location of MessinaLocation

Past Weather in Messina — Graph

°F

Messina Temperature Yesterday

Maximum temperature yesterday: 86 °F (at 1:50 PM)
Minimum temperature yesterday: 72 °F (at 6:00 AM)
Average temperature yesterday: 82 °F

High & Low Weather Summary for the Past Weeks

 TemperatureHumidityPressure
High88 °F (Jun 26, 11:50 AM)94% (Jun 16, 6:50 AM)30.12 "Hg (Jun 16, 6:50 AM)
Low66 °F (Jun 15, 6:00 AM)28% (Jun 18, 2:50 PM)29.68 "Hg (Jun 13, 12:50 PM)
Average75 °F59%29.91 "Hg
* Reported Jun 11 3:50 PM — Jun 26 3:50 PM, Messina, Weather by CustomWeather, © 2016

Note: Actual official high and low records may vary slightly from our data, if they occured in-between our weather recording intervals... More about our weather records

Advertising

Messina Weather History for the Previous 24 Hours

Scroll right to see more
 ConditionsComfort  
Time TempWeatherWind HumidityBarometerVisibility
3:50 PM
Sun, Jun 26
88 °FSunny.16 mph35%29.92 "Hg10 mi
2:50 PM88 °FSunny.17 mph33%29.92 "Hg10 mi
1:50 PM88 °FSunny.15 mph33%29.92 "Hg10 mi
12:50 PM88 °FSunny.15 mph33%29.92 "Hg10 mi
11:50 AM88 °FSunny.17 mph35%29.92 "Hg10 mi
10:50 AM84 °FSunny.16 mph43%29.92 "Hg10 mi
9:50 AM82 °FSunny.16 mph48%29.92 "Hg10 mi
8:50 AM82 °FSunny.15 mph51%29.92 "Hg10 mi
7:50 AM81 °FSunny.13 mph58%29.92 "Hg10 mi
6:50 AM75 °FSunny.18 mph74%29.89 "Hg10 mi
6:00 AM77 °FClear.14 mph65%29.89 "Hg10 mi
11:50 PM
Sat, Jun 25
79 °FClear.10 mph61%29.89 "Hg10 mi
10:50 PM79 °FClear.9 mph58%29.86 "Hg10 mi
9:50 PM81 °FClear.9 mph58%29.86 "Hg10 mi
8:50 PM79 °FSunny.9 mph61%29.86 "Hg10 mi
7:50 PM82 °FSunny.12 mph58%29.83 "Hg10 mi
6:50 PM86 °FSunny.7 mph46%29.83 "Hg10 mi
5:50 PM86 °FSunny.12 mph46%29.83 "Hg10 mi
Weather by CustomWeather, © 2016

See weather overviewHow to use our weather pages